�������l�o���
Date,Time,MP-1(��Sv/h),MP-2(��Sv/h),MP-3(��Sv/h),MP-4(��Sv/h),MP-5(��Sv/h),MP-6(��Sv/h),MP-7(��Sv/h),MP-8(��Sv/h),����,����(m/s),���J
2018/08/05,00:00,0.890,1.297,0.912,1.625,1.189,0.486,0.851,0.802,�k��,1.5,��
2018/08/05,00:10,0.891,1.296,0.913,1.628,1.188,0.486,0.853,0.803,�k��,2.0,��
2018/08/05,00:20,0.891,1.297,0.912,1.625,1.190,0.486,0.852,0.801,�k�k��,1.7,��
2018/08/05,00:30,0.890,1.297,0.912,1.626,1.188,0.485,0.851,0.803,�k��,2.0,��
2018/08/05,00:40,0.891,1.296,0.913,1.625,1.189,0.485,0.850,0.803,�k��,1.2,��
2018/08/05,00:50,0.890,1.297,0.912,1.625,1.190,0.484,0.851,0.802,�k��,1.7,��
2018/08/05,01:00,0.890,1.295,0.911,1.628,1.188,0.484,0.852,0.803,�k��,1.2,��
2018/08/05,01:10,0.890,1.295,0.912,1.627,1.189,0.485,0.852,0.803,�k�k��,1.5,��
2018/08/05,01:20,0.889,1.293,0.910,1.626,1.188,0.485,0.853,0.804,�k��,1.1,��
2018/08/05,01:30,0.892,1.295,0.912,1.624,1.189,0.485,0.850,0.801,���쐼,1.1,��
2018/08/05,01:40,0.890,1.294,0.913,1.627,1.187,0.486,0.851,0.802,-,CALM,��
2018/08/05,01:50,0.890,1.294,0.912,1.623,1.186,0.485,0.849,0.801,���쐼,0.8,��
2018/08/05,02:00,0.889,1.293,0.912,1.626,1.188,0.485,0.851,0.802,-,CALM,��
2018/08/05,02:10,0.891,1.292,0.913,1.627,1.191,0.485,0.852,0.800,�k,1.1,��
2018/08/05,02:20,0.889,1.294,0.912,1.626,1.190,0.485,0.852,0.800,�k�k��,0.9,��
2018/08/05,02:30,0.890,1.293,0.911,1.625,1.188,0.485,0.852,0.802,�k,0.9,��
2018/08/05,02:40,0.891,1.296,0.912,1.624,1.188,0.485,0.852,0.801,�k,0.9,��
2018/08/05,02:50,0.892,1.290,0.914,1.624,1.190,0.483,0.849,0.802,��쐼,0.6,��
2018/08/05,03:00,0.893,1.295,0.913,1.624,1.187,0.484,0.853,0.801,�k�k��,0.9,��
2018/08/05,03:10,0.891,1.294,0.912,1.624,1.186,0.483,0.852,0.802,-,CALM,��
2018/08/05,03:20,0.889,1.292,0.912,1.624,1.188,0.483,0.852,0.802,-,CALM,��
2018/08/05,03:30,0.889,1.292,0.912,1.624,1.189,0.484,0.850,0.803,-,CALM,��
2018/08/05,03:40,0.888,1.292,0.912,1.626,1.188,0.485,0.849,0.801,���쓌,0.6,��
2018/08/05,03:50,0.890,1.292,0.913,1.622,1.187,0.485,0.850,0.802,��쐼,0.9,��
2018/08/05,04:00,0.889,1.293,0.913,1.623,1.189,0.485,0.850,0.802,��,0.9,��
2018/08/05,04:10,0.889,1.294,0.912,1.625,1.188,0.485,0.850,0.802,��쐼,0.9,��
2018/08/05,04:20,0.890,1.294,0.912,1.625,1.188,0.485,0.851,0.804,�쐼,1.4,��
2018/08/05,04:30,0.890,1.294,0.912,1.623,1.188,0.485,0.851,0.802,��,1.4,��
2018/08/05,04:40,0.887,1.293,0.912,1.624,1.188,0.484,0.851,0.803,��쐼,2.2,��
2018/08/05,04:50,0.888,1.294,0.912,1.625,1.187,0.485,0.850,0.803,��쐼,2.8,��
2018/08/05,05:00,0.890,1.292,0.912,1.627,1.186,0.484,0.850,0.803,��,3.5,��
2018/08/05,05:10,0.888,1.292,0.912,1.627,1.189,0.486,0.851,0.802,��쐼,3.0,��
2018/08/05,05:20,0.890,1.293,0.912,1.625,1.187,0.484,0.852,0.803,��,3.0,��
2018/08/05,05:30,0.889,1.293,0.912,1.624,1.188,0.485,0.852,0.803,��쐼,2.5,��
2018/08/05,05:40,0.891,1.292,0.910,1.625,1.186,0.486,0.851,0.803,��쓌,2.0,��
2018/08/05,05:50,0.891,1.294,0.913,1.627,1.188,0.483,0.850,0.802,��,3.6,��
2018/08/05,06:00,0.891,1.293,0.913,1.627,1.188,0.484,0.852,0.801,��,6.1,��
2018/08/05,06:10,0.888,1.293,0.911,1.626,1.186,0.486,0.851,0.801,��,6.4,��
2018/08/05,06:20,0.892,1.296,0.912,1.628,1.186,0.486,0.851,0.803,��,6.0,��
2018/08/05,06:30,0.888,1.294,0.913,1.628,1.188,0.485,0.853,0.802,��,7.3,��
2018/08/05,06:40,0.891,1.291,0.913,1.624,1.187,0.486,0.854,0.803,��쐼,6.8,��
2018/08/05,06:50,0.890,1.292,0.912,1.626,1.186,0.487,0.851,0.804,��,7.3,��
2018/08/05,07:00,0.892,1.293,0.911,1.624,1.185,0.486,0.853,0.802,��,7.2,��
2018/08/05,07:10,0.893,1.293,0.913,1.622,1.187,0.484,0.854,0.801,��,6.4,��
2018/08/05,07:20,0.891,1.293,0.914,1.624,1.188,0.485,0.854,0.803,��,6.0,��
2018/08/05,07:30,0.891,1.295,0.912,1.627,1.188,0.487,0.854,0.801,��,5.5,��
2018/08/05,07:40,0.892,1.296,0.912,1.626,1.189,0.487,0.854,0.803,��,5.9,��
2018/08/05,07:50,0.892,1.294,0.913,1.623,1.189,0.487,0.856,0.803,��,5.9,��
2018/08/05,08:00,0.892,1.294,0.915,1.625,1.191,0.487,0.853,0.804,��,6.6,��
2018/08/05,08:10,0.891,1.292,0.913,1.626,1.188,0.487,0.853,0.803,��,4.2,��
2018/08/05,08:20,0.892,1.294,0.913,1.626,1.187,0.487,0.854,0.804,��쓌,5.6,��
2018/08/05,08:30,0.890,1.294,0.913,1.624,1.187,0.486,0.855,0.802,��쓌,6.2,��
2018/08/05,08:40,0.892,1.295,0.912,1.625,1.186,0.486,0.856,0.802,��쓌,5.7,��
2018/08/05,08:50,0.890,1.295,0.915,1.624,1.189,0.487,0.856,0.802,��쓌,5.4,��
2018/08/05,09:00,0.890,1.297,0.913,1.626,1.190,0.485,0.854,0.799,��쓌,5.5,��
2018/08/05,09:10,0.889,1.294,0.912,1.625,1.190,0.488,0.856,0.802,��,5.7,��
2018/08/05,09:20,0.890,1.295,0.912,1.625,1.189,0.489,0.853,0.801,��,5.1,��
2018/08/05,09:30,0.891,1.297,0.914,1.627,1.189,0.486,0.856,0.803,�쐼,4.7,��
2018/08/05,09:40,0.894,1.298,0.912,1.629,1.188,0.487,0.855,0.802,���쐼,4.3,��
2018/08/05,09:50,0.895,1.296,0.914,1.629,1.190,0.486,0.856,0.802,�쐼,2.0,��
2018/08/05,10:00,0.893,1.296,0.916,1.631,1.189,0.485,0.854,0.801,���쐼,2.6,��
2018/08/05,10:10,0.892,1.296,0.917,1.629,1.191,0.488,0.852,0.802,��,3.9,��
2018/08/05,10:20,0.893,1.296,0.915,1.630,1.193,0.486,0.854,0.803,���쐼,2.0,��
2018/08/05,10:30,0.894,1.298,0.915,1.630,1.193,0.487,0.853,0.803,��쓌,4.1,��
2018/08/05,10:40,0.896,1.301,0.917,1.631,1.192,0.488,0.855,0.800,��쓌,4.4,��
2018/08/05,10:50,0.896,1.300,0.918,1.629,1.195,0.487,0.854,0.803,��쓌,4.8,��
2018/08/05,11:00,0.895,1.302,0.920,1.630,1.197,0.485,0.855,0.805,��쓌,4.4,��
2018/08/05,11:10,0.894,1.298,0.915,1.629,1.193,0.486,0.854,0.803,��쓌,4.4,��
2018/08/05,11:20,0.895,1.299,0.917,1.628,1.193,0.486,0.855,0.804,��,2.6,��
2018/08/05,11:30,0.893,1.299,0.917,1.632,1.194,0.484,0.854,0.806,��,2.0,��
2018/08/05,11:40,0.897,1.300,0.916,1.631,1.193,0.486,0.853,0.806,�쐼,1.1,��
2018/08/05,11:50,0.894,1.298,0.917,1.634,1.195,0.487,0.854,0.804,��,0.9,��
2018/08/05,12:00,0.896,1.298,0.916,1.630,1.191,0.486,0.853,0.806,��쓌,4.1,��
2018/08/05,12:10,0.896,1.296,0.916,1.631,1.192,0.485,0.855,0.806,��쓌,5.0,��
2018/08/05,12:20,0.896,1.299,0.916,1.631,1.196,0.487,0.856,0.806,��쓌,3.9,��
2018/08/05,12:30,0.896,1.298,0.918,1.633,1.195,0.487,0.854,0.805,��,3.7,��
2018/08/05,12:40,0.897,1.300,0.915,1.630,1.195,0.486,0.853,0.805,��쓌,4.4,��
2018/08/05,12:50,0.897,1.300,0.918,1.628,1.197,0.486,0.856,0.805,��쓌,3.6,��
2018/08/05,13:00,0.898,1.298,0.917,1.631,1.196,0.484,0.855,0.805,��쓌,4.6,��
2018/08/05,13:10,0.895,1.302,0.915,1.628,1.198,0.487,0.853,0.805,��쓌,5.9,��
2018/08/05,13:20,0.894,1.299,0.918,1.632,1.196,0.485,0.855,0.803,��쓌,5.9,��
2018/08/05,13:30,0.895,1.297,0.916,1.633,1.195,0.486,0.855,0.804,��쓌,6.3,��
2018/08/05,13:40,0.895,1.298,0.917,1.633,1.194,0.484,0.857,0.806,��,5.5,��
2018/08/05,13:50,0.894,1.302,0.914,1.632,1.195,0.484,0.857,0.805,��,5.4,��
2018/08/05,14:00,0.894,1.300,0.917,1.633,1.197,0.485,0.858,0.805,��,4.2,��
2018/08/05,14:10,0.895,1.301,0.918,1.629,1.199,0.485,0.856,0.806,��,5.0,��
2018/08/05,14:20,0.895,1.300,0.920,1.629,1.199,0.486,0.858,0.805,��,4.7,��
2018/08/05,14:30,0.895,1.301,0.921,1.630,1.198,0.486,0.857,0.804,��,3.8,��
2018/08/05,14:40,0.895,1.299,0.916,1.632,1.199,0.484,0.859,0.804,��,4.6,��
2018/08/05,14:50,0.897,1.301,0.916,1.629,1.197,0.485,0.858,0.806,��쓌,3.0,��
2018/08/05,15:00,0.896,1.298,0.918,1.634,1.197,0.486,0.856,0.806,��쓌,2.6,��
2018/08/05,15:10,0.898,1.300,0.917,1.635,1.196,0.485,0.857,0.806,��,3.8,��
2018/08/05,15:20,0.896,1.299,0.916,1.632,1.194,0.485,0.856,0.804,��,3.3,��
2018/08/05,15:30,0.893,1.300,0.917,1.634,1.195,0.483,0.855,0.805,��,3.1,��
2018/08/05,15:40,0.894,1.301,0.916,1.632,1.196,0.485,0.856,0.805,�쐼,1.4,��
2018/08/05,15:50,0.894,1.298,0.916,1.632,1.194,0.484,0.855,0.805,��쐼,1.7,��
2018/08/05,16:00,0.894,1.299,0.914,1.632,1.194,0.484,0.855,0.805,�쐼,1.1,��
2018/08/05,16:10,0.893,1.297,0.914,1.630,1.194,0.483,0.857,0.805,��쐼,0.6,��
2018/08/05,16:20,0.894,1.297,0.915,1.632,1.193,0.483,0.855,0.804,��,0.9,��
2018/08/05,16:30,0.896,1.297,0.914,1.630,1.193,0.483,0.856,0.802,���k��,1.5,��
2018/08/05,16:40,0.895,1.296,0.914,1.631,1.192,0.482,0.856,0.802,���k��,2.0,��
2018/08/05,16:50,0.894,1.300,0.913,1.631,1.195,0.484,0.856,0.803,�k�k��,2.6,��
2018/08/05,17:00,0.895,1.296,0.915,1.633,1.194,0.484,0.855,0.803,�k�k��,3.5,��
2018/08/05,17:10,0.895,1.300,0.915,1.630,1.196,0.483,0.855,0.804,�k�k��,4.0,��
2018/08/05,17:20,0.894,1.297,0.915,1.630,1.194,0.486,0.854,0.804,�k�k��,3.9,��
2018/08/05,17:30,0.894,1.298,0.915,1.633,1.194,0.483,0.855,0.803,�k�k��,5.4,��
2018/08/05,17:40,0.893,1.297,0.913,1.633,1.194,0.484,0.858,0.805,�k�k��,5.7,��
2018/08/05,17:50,0.895,1.297,0.914,1.631,1.194,0.485,0.856,0.804,�k�k��,5.3,��
2018/08/05,18:00,0.891,1.298,0.914,1.633,1.193,0.485,0.854,0.803,�k�k��,5.1,��
2018/08/05,18:10,0.891,1.297,0.915,1.631,1.193,0.484,0.855,0.804,�k�k��,6.5,��
2018/08/05,18:20,0.890,1.299,0.912,1.634,1.193,0.484,0.853,0.802,�k,5.0,��
2018/08/05,18:30,0.891,1.298,0.913,1.631,1.193,0.481,0.853,0.803,�k,4.2,��
2018/08/05,18:40,0.892,1.299,0.915,1.631,1.193,0.482,0.853,0.803,�k,4.8,��
2018/08/05,18:50,0.891,1.295,0.914,1.634,1.192,0.482,0.854,0.802,�k,4.6,��
2018/08/05,19:00,0.892,1.293,0.912,1.631,1.192,0.482,0.853,0.802,�k�k��,5.0,��
2018/08/05,19:10,0.891,1.296,0.913,1.627,1.192,0.481,0.853,0.803,�k�k��,4.5,��
2018/08/05,19:20,0.892,1.297,0.913,1.631,1.192,0.481,0.854,0.801,�k�k��,4.6,��
2018/08/05,19:30,0.892,1.296,0.914,1.627,1.191,0.480,0.853,0.805,�k�k��,3.5,��
2018/08/05,19:40,0.893,1.296,0.912,1.632,1.191,0.482,0.852,0.802,�k�k��,3.0,��
2018/08/05,19:50,0.891,1.297,0.914,1.629,1.190,0.481,0.853,0.804,�k�k��,3.5,��
2018/08/05,20:00,0.892,1.296,0.913,1.630,1.191,0.481,0.853,0.801,�k�k��,3.8,��
2018/08/05,20:10,0.891,1.297,0.914,1.631,1.192,0.483,0.854,0.802,�k,4.3,��
2018/08/05,20:20,0.893,1.297,0.914,1.629,1.192,0.482,0.853,0.803,�k�k��,3.9,��
2018/08/05,20:30,0.893,1.297,0.914,1.632,1.193,0.484,0.854,0.801,�k�k��,4.3,��
2018/08/05,20:40,0.894,1.295,0.915,1.629,1.194,0.482,0.854,0.803,�k,2.9,��
2018/08/05,20:50,0.893,1.295,0.915,1.630,1.192,0.482,0.853,0.802,�k�k��,1.5,��
2018/08/05,21:00,0.893,1.296,0.913,1.633,1.193,0.483,0.854,0.804,�k�k��,0.6,��
2018/08/05,21:10,0.892,1.293,0.914,1.630,1.192,0.483,0.852,0.803,�k��,0.8,��
2018/08/05,21:20,0.890,1.300,0.916,1.628,1.190,0.483,0.855,0.802,�쐼,0.9,��
2018/08/05,21:30,0.895,1.294,0.914,1.632,1.192,0.484,0.852,0.802,��쐼,3.3,��
2018/08/05,21:40,0.893,1.297,0.914,1.631,1.192,0.482,0.854,0.804,��,5.5,��
2018/08/05,21:50,0.894,1.298,0.917,1.631,1.191,0.483,0.853,0.803,��쐼,5.0,��
2018/08/05,22:00,0.893,1.297,0.915,1.629,1.191,0.483,0.854,0.803,��쐼,5.1,�L
2018/08/05,22:10,0.891,1.296,0.912,1.630,1.191,0.483,0.855,0.803,��,3.7,��
2018/08/05,22:20,0.891,1.295,0.915,1.631,1.191,0.484,0.854,0.802,��,1.7,��
2018/08/05,22:30,0.893,1.294,0.912,1.632,1.191,0.483,0.854,0.805,�쓌,1.4,��
2018/08/05,22:40,0.891,1.297,0.915,1.632,1.193,0.484,0.856,0.802,�k�k��,2.3,��
2018/08/05,22:50,0.892,1.296,0.913,1.631,1.194,0.484,0.853,0.803,�k�k��,4.9,��
2018/08/05,23:00,0.891,1.295,0.914,1.632,1.193,0.485,0.854,0.803,�k,5.9,��
2018/08/05,23:10,0.890,1.291,0.912,1.630,1.191,0.483,0.855,0.803,�k,6.2,��
2018/08/05,23:20,0.892,1.293,0.914,1.630,1.190,0.481,0.853,0.804,�k,5.4,��
2018/08/05,23:30,0.889,1.294,0.913,1.628,1.190,0.484,0.853,0.802,�k�k��,4.8,��
2018/08/05,23:40,0.891,1.293,0.911,1.629,1.188,0.482,0.852,0.801,�k�k��,6.2,��
2018/08/05,23:50,0.890,1.296,0.911,1.630,1.189,0.482,0.851,0.800,�k�k��,6.4,��
